Wind_Speed
51 50 44 40 43 47 50 48 49 53 54 52 50 49 47 46 44 44 42 38 35 35 35 34 33 33 32 31 30 31 31 32 33 32 31 30 28 27 26 25 25 24 22 21 19 18 19 18 16 15 14 13 13 14 13 14 14 14 15 15 15 14 14
45 49 49 43 42 49 54 53 51 53 56 54 51 51 49 46 45 45 42 39 36 35 35 35 34 34 33 32 32 32 32 33 34 34 32 30 29 28 27 26 26 25 24 22 20 19 20 19 18 16 15 14 14 14 15 16 15 14 14 15 15 15 14
40 43 50 47 42 45 52 55 57 57 57 55 52 51 50 46 46 46 43 40 37 36 36 35 34 34 33 33 33 33 33 35 35 35 33 32 30 30 28 28 27 27 26 24 21 20 20 20 19 18 18 17 16 16 16 17 16 14 14 15 16 16 15
47 43 46 48 44 43 47 51 57 59 56 53 51 50 49 46 46 46 43 41 39 36 35 34 34 34 33 34 34 34 35 36 36 36 35 33 32 31 30 29 29 28 27 25 23 22 22 22 21 20 19 19 19 17 17 17 17 16 15 16 16 16 16
56 49 46 49 46 43 43 45 52 58 55 53 51 50 47 46 46 45 44 43 39 36 35 34 34 34 34 34 35 35 36 37 37 37 36 34 33 32 31 31 31 29 28 27 26 24 23 23 23 22 20 20 20 19 18 18 18 18 17 16 16 16 16
59 54 50 51 49 45 41 41 49 55 55 54 53 51 47 46 47 46 45 44 40 37 36 35 35 36 36 36 36 36 37 39 39 37 36 36 36 35 34 33 32 31 29 28 27 26 25 25 24 23 21 21 21 20 19 18 18 19 19 17 16 16 17
59 57 54 53 53 51 44 39 43 49 52 54 53 49 47 47 47 47 47 46 42 39 37 37 37 37 37 36 37 37 38 40 40 38 37 37 38 37 36 35 33 32 31 30 29 28 27 26 26 25 23 22 22 22 21 21 21 21 21 19 18 17 17
59 59 58 55 56 58 54 46 43 45 48 53 54 49 47 48 48 48 48 47 44 41 39 39 38 38 38 37 38 38 38 40 40 39 38 38 39 39 38 36 35 34 33 31 31 30 29 27 27 26 25 24 24 24 24 24 23 23 22 21 20 18 17
62 61 61 60 56 57 59 55 50 48 46 48 51 50 47 48 50 49 50 49 46 43 41 41 41 41 40 39 39 39 38 39 40 39 39 39 40 40 39 38 37 36 34 33 33 32 31 29 28 27 27 27 26 26 26 25 25 24 22 21 20 19 18
65 64 64 62 55 53 57 55 51 49 46 44 45 48 48 49 51 51 51 51 49 45 44 44 44 44 43 40 39 39 39 39 38 39 39 39 40 41 40 39 37 36 36 35 35 35 33 31 30 30 29 29 29 28 28 27 26 25 22 20 19 19 19
68 67 66 61 54 52 56 55 51 48 47 46 44 45 47 50 54 55 54 54 52 49 48 48 47 46 44 42 40 41 41 40 38 38 39 40 40 41 40 39 38 36 36 36 36 36 35 33 32 32 31 31 30 29 28 27 26 24 22 19 19 19 19
70 70 68 62 57 56 56 56 55 52 50 48 46 46 49 53 58 59 58 58 56 53 52 51 49 47 46 44 43 43 43 42 40 39 40 40 41 42 41 40 39 37 36 37 37 36 35 34 33 32 32 31 30 28 27 25 24 23 20 19 19 19 19
73 72 69 65 62 62 59 54 54 56 53 50 49 48 49 54 60 62 62 62 60 57 55 53 50 49 47 46 45 45 45 44 43 41 41 41 42 42 42 41 39 38 37 37 37 36 35 34 33 32 31 30 29 27 24 23 22 21 19 18 19 19 18
75 73 69 65 63 64 64 57 54 57 56 51 49 48 46 49 59 64 64 63 61 58 57 55 53 51 49 48 47 46 46 46 45 43 42 42 43 43 42 41 40 39 38 38 38 36 35 34 32 30 29 28 27 26 24 23 22 20 18 17 17 18 18
76 75 71 66 63 63 65 62 57 57 58 52 48 48 45 43 50 59 61 60 59 58 58 57 55 52 50 50 49 48 47 46 45 44 43 43 44 43 42 41 41 39 39 38 38 36 35 34 31 29 28 27 26 26 25 23 22 21 20 18 17 18 19
77 76 73 71 69 66 65 64 60 58 60 57 50 49 47 42 45 53 57 58 57 56 58 58 56 54 53 52 51 50 48 47 45 44 44 44 44 44 43 42 41 40 40 39 38 37 35 34 31 29 28 28 27 26 25 24 22 22 21 21 20 20 20
77 76 74 73 74 71 67 67 65 61 63 61 54 52 51 47 46 52 56 57 57 56 57 58 57 56 55 53 52 52 51 49 48 46 44 45 45 45 45 43 42 42 41 40 39 37 36 34 32 30 30 29 28 26 26 25 23 22 21 22 23 23 22
77 76 75 74 75 73 69 69 66 62 64 63 56 54 56 52 48 51 54 55 54 53 53 56 57 55 55 55 53 53 54 52 51 48 46 46 46 46 46 45 44 44 43 42 40 38 36 35 34 32 31 30 28 27 26 26 25 24 22 22 24 25 24
76 75 75 75 74 73 72 70 65 61 65 67 61 54 55 54 50 49 51 50 49 48 49 53 57 55 55 57 57 56 57 56 53 51 49 48 47 46 47 47 46 46 45 43 40 39 38 37 36 34 32 30 29 28 27 26 26 25 24 24 24 25 26
75 75 73 73 74 74 74 73 69 65 66 68 66 58 54 55 53 50 49 48 46 46 45 49 56 58 55 57 61 61 59 59 56 53 51 50 48 47 47 48 48 47 47 45 42 41 40 39 37 36 34 32 30 29 27 26 26 25 25 26 25 24 25
72 73 73 73 73 73 74 74 73 72 69 66 65 61 56 55 55 54 53 51 48 46 43 43 50 57 56 56 62 64 62 60 58 55 53 52 50 48 47 47 47 47 48 47 45 44 43 41 39 37 36 35 33 31 29 28 27 26 26 26 25 23 24
68 69 71 73 73 72 73 73 73 73 72 67 64 62 58 56 57 58 56 54 52 50 47 44 44 51 54 54 59 64 62 60 59 57 55 54 52 50 47 47 47 48 49 49 49 48 46 44 42 39 38 37 36 34 32 30 29 27 27 27 26 24 23
66 67 69 72 73 71 70 71 72 71 68 66 65 63 61 57 57 59 58 56 55 52 52 51 49 51 53 53 56 61 62 60 59 60 59 57 55 52 50 48 46 46 49 51 52 51 49 46 44 42 40 39 39 38 35 33 31 29 28 28 28 27 24
63 64 67 71 73 71 67 66 70 70 66 64 63 63 63 60 58 58 59 59 58 54 52 54 55 55 55 54 54 57 59 61 61 62 63 61 58 55 52 50 49 47 47 50 52 52 49 47 45 44 42 41 42 41 38 36 34 32 31 30 30 30 28
59 61 63 68 71 69 65 65 69 70 67 63 62 63 63 61 60 61 62 59 59 58 56 55 57 57 57 56 55 53 53 55 59 62 62 62 61 59 56 54 53 50 46 47 51 50 47 46 45 44 44 44 44 44 42 40 36 35 34 32 31 30 30
53 57 60 64 67 68 65 64 68 72 70 63 59 61 64 62 58 59 62 61 57 58 60 58 57 58 57 56 54 50 47 48 52 58 62 64 64 63 60 57 56 53 48 47 50 48 44 44 44 44 45 46 46 46 45 43 40 38 36 34 32 29 28
48 53 57 62 66 68 65 61 62 69 73 70 63 60 64 67 62 57 59 60 56 55 58 59 58 57 55 54 51 48 47 48 48 51 57 62 64 64 63 60 58 55 50 49 51 50 47 46 45 46 48 48 48 47 46 45 44 41 39 37 35 32 31
45 50 55 60 64 66 65 60 58 62 68 71 69 65 65 69 68 63 60 58 56 56 57 58 58 58 55 53 53 53 53 52 51 50 52 56 60 63 65 63 62 60 55 53 56 56 55 53 51 51 52 51 50 49 49 48 46 44 42 39 37 37 36
45 48 52 57 60 64 65 61 58 60 65 69 69 68 68 68 66 65 65 60 55 54 56 55 56 58 57 53 52 54 56 56 55 54 53 54 56 59 62 63 63 64 64 62 63 63 61 58 56 56 55 53 51 50 50 50 47 46 45 42 39 39 40
44 47 50 53 56 59 62 63 60 56 59 66 68 65 68 71 67 65 69 70 62 54 53 54 53 54 54 53 53 53 54 56 57 55 52 52 54 56 57 58 60 63 67 68 69 68 63 59 58 58 57 54 52 53 52 51 49 48 47 46 43 42 42
42 46 48 51 53 52 54 62 67 61 56 60 64 60 60 66 69 68 69 73 70 62 57 57 55 50 49 52 57 57 53 51 52 52 51 50 52 56 57 56 56 58 60 64 68 70 66 62 60 59 56 54 54 55 54 52 50 50 51 50 48 47 45
41 44 46 49 51 50 46 50 61 64 61 61 63 61 54 52 59 67 71 74 74 69 65 64 62 57 51 49 52 55 54 51 48 50 51 50 51 54 56 54 53 53 55 59 65 69 69 65 62 59 57 57 58 56 54 53 53 53 54 54 53 52 49
40 43 45 47 48 49 47 44 47 53 58 60 63 64 59 50 47 54 63 72 75 74 71 69 67 64 58 50 47 49 52 53 51 52 53 53 53 53 53 51 48 47 51 55 59 66 70 68 64 62 61 60 59 56 54 55 56 57 58 59 58 54 52
39 42 44 45 46 46 46 45 44 46 52 57 60 63 63 58 50 47 52 64 71 73 73 71 69 67 63 54 48 47 49 51 51 51 50 50 54 56 56 54 52 52 55 55 53 58 67 71 69 66 63 60 59 58 57 57 59 59 60 62 59 54 51
37 40 42 44 45 45 45 44 44 45 49 54 58 60 61 60 55 49 48 55 63 68 71 71 69 67 65 58 49 46 49 51 51 51 48 47 50 54 58 60 62 63 66 63 56 53 59 65 65 64 62 59 59 60 60 60 61 60 61 63 60 54 52
34 37 40 43 45 46 46 46 46 46 47 50 54 57 59 61 59 54 48 48 53 60 67 69 67 64 64 62 55 48 48 50 52 52 51 50 51 53 55 56 56 61 68 70 66 61 59 60 60 59 59 59 58 59 60 61 61 60 61 62 60 56 53
28 31 35 39 43 46 48 49 49 50 49 50 51 52 54 57 59 57 54 51 52 55 60 65 66 64 62 63 61 55 50 50 52 53 53 55 54 51 50 50 51 58 67 67 62 59 57 55 54 54 55 56 56 57 58 58 59 59 59 58 57 55 53
Wind_Direction
244 243 240 240 240 237 236 236 231 228 227 227 229 232 234 235 235 235 235 232 230 232 236 237 238 240 242 243 245 247 247 247 246 246 248 251 252 253 254 255 258 260 261 262 263 265 268 270 272 275 281 290 297 301 305 306 305 303 304 310 316 320 320
243 243 238 238 240 237 235 232 227 226 226 226 228 232 235 236 236 235 234 231 229 230 234 236 237 239 240 241 244 245 244 243 243 244 246 249 251 252 253 253 256 258 260 261 262 262 264 267 270 276 284 292 297 298 300 302 303 303 303 305 307 310 312
247 246 238 237 239 238 238 233 226 224 224 225 228 233 235 236 236 234 232 230 228 229 232 235 236 236 237 240 242 244 242 240 240 242 244 247 249 251 252 252 254 256 258 260 260 260 262 265 269 275 283 290 295 296 297 299 300 303 304 302 300 302 304
246 249 240 236 238 240 243 238 227 222 222 223 227 231 233 234 234 233 231 229 228 228 230 233 234 234 236 239 242 243 242 240 239 241 244 246 248 250 251 252 253 254 256 258 258 258 261 265 270 274 281 288 292 294 296 296 298 302 303 299 297 298 301
242 246 242 236 238 241 243 241 231 224 224 227 227 229 231 231 232 231 230 229 228 228 228 230 231 233 235 239 244 244 242 241 240 240 243 246 247 249 250 251 251 252 254 255 257 258 260 264 269 273 278 284 289 292 296 297 298 301 301 298 297 298 299
240 242 242 238 237 240 241 238 234 232 231 230 230 230 230 230 230 230 229 228 227 226 226 228 229 232 236 241 245 245 242 241 241 240 242 245 247 248 249 250 251 252 253 255 256 258 260 263 267 271 275 280 285 291 295 298 298 299 301 300 298 298 298
239 238 240 239 237 237 239 238 237 237 233 228 229 230 229 229 231 231 229 229 227 226 226 228 228 230 237 242 244 243 240 240 241 241 241 244 247 247 248 250 251 252 253 254 256 258 260 263 266 269 273 277 282 288 293 298 299 299 301 301 298 297 296
237 237 236 238 238 235 235 237 239 240 235 228 229 231 230 229 232 233 231 229 229 228 228 229 229 230 236 241 242 242 240 240 241 242 241 243 246 248 249 249 250 252 253 254 256 257 258 261 265 269 273 276 281 287 294 298 300 300 301 300 297 296 296
235 236 235 235 237 236 236 239 242 243 239 232 229 232 234 234 234 234 232 231 230 229 229 230 231 231 234 238 240 240 241 240 240 242 243 244 246 248 249 249 250 252 253 254 255 256 257 259 264 269 273 277 282 287 292 296 297 297 297 296 296 297 298
235 235 235 234 234 236 237 239 243 244 241 236 233 233 236 238 237 235 233 232 231 230 229 230 232 232 233 236 237 238 240 241 240 241 242 243 245 248 249 249 249 251 253 254 255 256 258 260 263 268 272 277 282 286 290 294 293 293 295 297 298 298 300
235 234 234 235 233 233 234 235 237 239 240 241 240 236 236 239 238 234 231 232 231 230 230 230 231 231 232 234 235 236 239 240 240 240 242 243 245 247 249 250 250 251 252 254 255 256 258 260 263 266 271 275 280 285 290 291 291 292 296 298 296 296 300
236 235 233 233 232 233 235 235 235 237 239 240 239 236 235 237 236 233 230 229 229 229 229 229 230 231 231 233 234 235 238 239 239 239 241 243 245 247 249 251 251 252 253 254 255 256 258 260 262 265 269 274 278 282 285 287 288 292 295 296 294 295 300
236 235 233 231 231 235 235 236 238 238 236 240 243 239 236 233 231 229 228 226 226 227 228 229 230 230 231 234 234 235 237 238 238 238 240 241 244 247 249 250 252 253 254 255 256 257 258 260 262 265 268 273 276 278 279 281 284 287 290 292 294 296 300
238 236 234 230 231 236 236 237 241 238 234 239 243 241 240 236 230 225 224 224 225 226 228 230 230 231 231 234 236 236 236 238 238 238 240 241 243 245 247 250 252 253 254 257 258 258 259 260 262 264 267 270 272 274 275 277 279 281 284 287 290 293 295
240 237 234 229 229 234 236 237 238 235 234 240 242 240 242 240 231 226 225 226 227 229 230 230 231 232 233 234 237 238 238 239 241 241 241 243 243 244 245 247 250 252 253 255 257 259 260 261 262 263 265 267 270 272 274 275 276 277 280 282 284 286 289
240 238 235 230 228 231 235 236 234 231 233 239 243 243 242 238 230 227 227 228 231 233 234 232 232 233 234 235 237 239 240 241 242 242 243 244 244 243 243 245 247 249 250 252 255 257 258 260 262 263 264 266 268 271 273 273 273 275 279 282 283 284 286
239 239 235 232 230 229 231 234 233 231 232 236 243 244 240 237 231 229 229 230 233 236 236 234 234 235 236 237 238 240 241 241 240 239 240 243 246 245 244 244 244 246 247 249 252 255 257 260 262 262 263 265 268 270 271 271 271 273 277 281 284 285 286
237 237 235 233 231 228 228 231 231 230 231 234 240 241 237 236 234 232 233 233 233 236 237 235 237 239 239 239 240 241 242 242 242 239 237 237 241 244 245 245 246 246 247 249 251 253 256 259 261 261 262 263 266 268 270 270 270 271 275 278 282 286 288
235 236 235 233 231 228 227 228 229 230 231 233 238 239 234 234 236 235 234 236 236 237 238 238 238 241 244 242 240 241 242 242 242 241 240 238 237 239 241 243 245 246 247 249 250 253 255 257 258 260 260 261 263 266 268 268 269 270 273 275 279 285 289
234 234 235 233 231 228 226 227 228 229 231 232 235 237 234 234 236 236 234 237 239 240 243 242 238 239 243 244 241 239 241 242 242 242 242 241 241 241 240 240 242 245 248 250 251 252 254 255 256 258 258 259 261 264 265 266 267 269 271 274 277 283 287
233 233 234 233 230 228 226 227 228 230 231 232 232 233 235 235 236 235 234 235 237 240 243 244 241 239 242 245 242 238 239 241 243 244 244 243 244 246 246 244 243 246 247 248 250 250 251 252 254 255 257 259 260 262 263 263 264 266 269 271 274 278 283
231 232 233 232 230 228 227 228 229 231 233 234 233 232 234 236 235 235 235 234 235 238 241 243 244 243 244 245 242 238 239 242 244 246 246 246 244 245 247 247 247 249 249 249 249 249 250 251 252 253 256 259 260 261 262 263 263 264 268 269 269 272 278
231 231 232 231 229 227 227 229 229 230 233 234 235 235 235 236 236 235 235 235 236 239 241 242 246 248 247 244 239 236 237 241 245 246 246 246 245 244 245 246 248 250 251 251 249 248 250 252 253 254 256 259 261 262 262 263 264 264 265 265 265 266 270
231 231 232 231 228 225 227 230 228 229 232 234 236 237 236 237 238 235 234 235 236 238 240 240 242 246 246 244 239 236 237 240 243 245 246 245 245 244 245 247 249 250 252 252 250 248 249 252 254 257 259 260 263 264 264 264 264 265 263 262 262 261 263
231 231 231 231 228 225 227 230 228 227 231 235 236 235 235 238 240 237 235 235 236 237 238 238 237 238 240 240 237 235 237 240 242 244 245 244 244 245 246 249 251 251 252 254 251 247 249 251 254 257 260 262 264 266 267 266 266 266 265 263 262 260 259
232 232 232 231 228 225 225 229 229 226 229 234 236 235 233 235 239 238 235 235 236 236 237 238 237 235 235 235 235 234 235 238 238 240 241 241 242 243 245 249 250 248 252 254 248 246 250 254 256 258 259 262 265 267 269 270 268 268 266 263 262 261 259
233 232 232 231 229 226 223 226 228 228 230 234 236 235 233 232 236 237 234 235 236 235 235 236 237 238 237 234 233 235 237 237 236 236 237 238 239 240 242 245 246 246 249 249 245 246 254 258 260 261 260 261 265 266 269 270 269 267 267 264 262 260 259
233 231 231 231 230 228 224 223 227 229 232 235 237 237 235 233 235 235 233 234 236 235 234 235 235 238 240 237 235 235 236 237 236 234 235 235 236 237 239 241 243 244 245 245 244 249 257 261 262 263 261 261 263 265 266 268 268 266 265 264 262 261 260
232 229 229 229 230 230 226 223 225 229 233 235 236 237 237 236 236 236 233 231 233 234 233 234 235 236 238 240 239 236 235 236 235 234 234 234 235 236 237 239 240 241 242 243 244 249 256 259 261 262 261 259 260 262 264 265 265 264 264 263 263 262 262
232 229 228 227 228 230 228 224 223 228 234 235 235 237 239 238 239 239 235 232 234 235 233 232 234 235 236 238 239 237 236 237 237 236 235 236 238 240 240 241 241 241 242 242 243 246 251 255 258 259 257 255 257 260 261 262 262 263 263 264 264 264 262
232 230 228 226 226 228 229 226 225 227 234 235 234 235 238 239 240 241 238 235 235 238 237 233 232 236 240 240 238 238 238 238 239 240 240 240 241 243 244 245 244 246 246 245 243 244 247 250 254 254 252 252 255 258 258 259 260 260 261 263 264 263 262
231 230 227 226 226 226 227 229 229 229 233 234 232 232 234 239 244 244 242 239 237 238 240 237 234 237 244 245 241 239 240 241 243 243 242 242 243 246 248 248 249 251 252 249 247 246 246 248 249 247 250 254 255 255 256 257 258 259 260 262 262 263 263
229 229 228 227 227 226 226 229 230 231 235 235 233 233 233 236 243 245 243 241 238 238 241 241 238 240 246 250 249 245 243 244 245 243 242 243 244 247 249 247 247 250 250 249 250 247 246 247 245 244 250 254 253 252 254 255 256 259 261 262 264 266 267
229 229 228 228 228 228 227 228 230 232 236 236 234 234 233 234 239 243 243 241 238 238 241 242 242 243 246 250 252 249 246 246 246 245 248 251 251 252 252 249 250 254 254 254 253 247 243 245 247 248 251 252 250 250 252 254 256 259 261 263 264 266 266
230 229 229 229 230 230 228 228 229 231 236 238 237 237 235 234 238 244 246 245 241 238 240 243 245 246 247 248 249 247 246 247 247 248 250 254 256 257 256 254 255 258 256 254 252 245 241 244 248 250 251 251 250 250 251 252 255 258 261 263 264 264 263
233 230 230 230 231 233 232 231 231 231 233 236 238 240 238 236 238 243 247 247 245 242 242 244 247 248 247 247 248 250 249 249 250 250 250 252 254 254 255 256 257 257 255 253 251 249 247 248 247 247 248 249 250 250 251 253 254 257 260 261 262 263 264
241 237 235 233 233 234 235 235 235 235 235 235 237 239 241 240 241 244 247 248 248 247 246 246 247 248 248 248 250 254 258 257 256 254 252 253 254 254 254 257 258 257 254 252 249 248 247 247 246 244 244 247 249 249 251 253 254 256 258 259 260 261 264
Height
5757 5760 5765 5767 5770 5772 5772 5773 5776 5780 5784 5787 5791 5794 5796 5798 5801 5802 5804 5806 5808 5809 5810 5813 5815 5816 5818 5819 5821 5821 5822 5823 5824 5825 5826 5827 5828 5828 5829 5830 5830 5831 5832 5832 5833 5833 5833 5833 5833 5833 5833 5833 5833 5832 5832 5832 5832 5831 5831 5830 5829 5829 5828
5751 5754 5759 5761 5762 5764 5766 5768 5770 5773 5777 5782 5786 5789 5791 5795 5797 5799 5800 5802 5805 5806 5807 5809 5811 5813 5815 5816 5817 5818 5819 5820 5821 5822 5823 5824 5825 5826 5827 5828 5828 5829 5830 5830 5831 5831 5831 5831 5831 5831 5831 5831 5831 5831 5831 5830 5830 5830 5829 5829 5828 5827 5827
5745 5748 5752 5755 5757 5759 5761 5764 5766 5767 5771 5776 5781 5784 5787 5791 5793 5795 5797 5799 5801 5802 5803 5805 5807 5810 5812 5813 5814 5814 5815 5816 5817 5819 5820 5822 5823 5823 5824 5825 5825 5826 5827 5828 5829 5829 5829 5829 5829 5829 5829 5830 5830 5829 5829 5828 5828 5828 5828 5827 5826 5825 5825
5740 5743 5746 5749 5752 5754 5756 5760 5762 5764 5767 5771 5775 5778 5782 5786 5789 5792 5793 5795 5796 5798 5800 5802 5804 5806 5808 5809 5810 5811 5812 5813 5814 5816 5817 5819 5820 5821 5822 5822 5823 5823 5824 5826 5826 5827 5827 5827 5827 5827 5827 5827 5827 5827 5827 5827 5826 5826 5826 5825 5824 5824 5823
5736 5739 5742 5745 5748 5750 5751 5755 5758 5761 5764 5767 5769 5773 5777 5781 5784 5788 5790 5791 5792 5794 5796 5798 5800 5802 5804 5805 5806 5808 5809 5810 5811 5813 5815 5816 5817 5818 5819 5819 5820 5820 5822 5823 5824 5825 5825 5825 5825 5825 5825 5825 5825 5825 5826 5825 5825 5824 5824 5823 5823 5822 5822
5733 5736 5738 5741 5744 5745 5747 5750 5753 5756 5759 5762 5765 5769 5773 5777 5780 5783 5786 5787 5789 5791 5792 5794 5796 5798 5799 5801 5802 5804 5806 5807 5808 5810 5812 5813 5814 5815 5816 5816 5817 5818 5819 5820 5821 5822 5822 5823 5823 5823 5823 5824 5823 5823 5824 5824 5823 5822 5822 5821 5821 5820 5820
5728 5731 5733 5737 5740 5742 5743 5746 5749 5752 5754 5757 5761 5765 5769 5772 5775 5778 5781 5783 5785 5786 5787 5789 5792 5794 5795 5797 5798 5800 5802 5803 5804 5806 5808 5809 5810 5812 5813 5814 5815 5815 5816 5817 5818 5819 5820 5820 5821 5821 5821 5822 5822 5821 5821 5822 5821 5821 5820 5819 5819 5818 5818
5722 5725 5728 5732 5734 5737 5739 5741 5744 5747 5749 5752 5755 5760 5764 5767 5769 5773 5776 5778 5781 5782 5784 5785 5787 5789 5791 5793 5794 5796 5798 5799 5801 5803 5805 5806 5807 5808 5810 5811 5812 5812 5813 5815 5816 5816 5817 5818 5818 5819 5819 5820 5820 5819 5819 5819 5819 5818 5818 5817 5816 5816 5816
5716 5718 5721 5725 5728 5731 5734 5736 5739 5743 5746 5748 5751 5755 5758 5761 5764 5768 5770 5774 5777 5778 5780 5781 5782 5784 5786 5788 5790 5792 5793 5795 5798 5800 5801 5803 5804 5805 5806 5808 5809 5809 5810 5812 5813 5813 5814 5815 5816 5816 5817 5817 5818 5818 5817 5817 5817 5817 5816 5816 5815 5815 5814
5709 5711 5714 5719 5724 5727 5729 5731 5735 5739 5743 5745 5747 5750 5753 5755 5758 5762 5765 5768 5771 5773 5775 5776 5777 5779 5781 5783 5786 5787 5789 5791 5794 5796 5797 5799 5801 5801 5802 5804 5805 5807 5807 5808 5810 5810 5811 5812 5813 5814 5815 5815 5816 5815 5815 5815 5814 5814 5815 5814 5814 5813 5813
5701 5703 5708 5713 5718 5721 5724 5726 5730 5734 5738 5741 5742 5744 5748 5750 5751 5754 5758 5762 5765 5768 5769 5770 5772 5773 5775 5778 5781 5783 5785 5787 5789 5792 5793 5795 5797 5798 5799 5801 5802 5803 5804 5805 5806 5807 5808 5809 5810 5811 5812 5813 5813 5813 5812 5812 5812 5811 5812 5812 5812 5811 5811
5693 5696 5701 5708 5712 5715 5718 5721 5725 5729 5732 5734 5734 5736 5740 5742 5743 5746 5750 5754 5758 5761 5762 5764 5766 5768 5770 5772 5775 5778 5780 5782 5785 5787 5789 5791 5793 5794 5796 5797 5799 5800 5801 5802 5803 5804 5805 5806 5807 5808 5809 5810 5810 5810 5810 5809 5809 5809 5809 5809 5809 5809 5808
5684 5688 5694 5701 5707 5709 5711 5715 5719 5723 5727 5728 5728 5728 5731 5733 5734 5737 5741 5745 5749 5753 5756 5758 5760 5763 5765 5767 5770 5773 5775 5777 5779 5782 5785 5787 5789 5791 5793 5794 5796 5797 5798 5799 5800 5801 5802 5803 5804 5805 5806 5806 5806 5807 5807 5807 5806 5806 5806 5806 5806 5806 5806
5676 5681 5687 5695 5702 5704 5706 5709 5713 5717 5720 5721 5722 5724 5725 5727 5728 5730 5734 5739 5743 5747 5750 5752 5754 5757 5760 5762 5765 5768 5771 5773 5775 5778 5781 5783 5785 5787 5789 5791 5792 5794 5795 5796 5797 5798 5799 5800 5801 5802 5802 5802 5803 5803 5803 5803 5803 5803 5803 5804 5803 5803 5803
5667 5673 5681 5688 5694 5697 5699 5703 5707 5712 5715 5715 5717 5719 5721 5723 5725 5729 5733 5737 5740 5743 5745 5746 5750 5753 5755 5757 5760 5764 5767 5770 5773 5776 5778 5780 5782 5784 5786 5787 5789 5790 5791 5792 5794 5795 5797 5798 5798 5799 5799 5799 5799 5799 5799 5800 5800 5799 5799 5800 5800 5800 5800
5659 5665 5673 5680 5685 5689 5692 5696 5701 5706 5708 5709 5711 5714 5717 5720 5722 5725 5729 5733 5736 5739 5740 5742 5745 5748 5750 5753 5756 5759 5763 5766 5770 5772 5775 5777 5778 5780 5782 5783 5784 5786 5787 5788 5790 5791 5793 5794 5795 5796 5796 5796 5796 5796 5796 5796 5796 5796 5795 5795 5796 5796 5797
5651 5657 5665 5671 5675 5681 5684 5687 5693 5699 5699 5700 5705 5709 5712 5715 5717 5719 5721 5725 5729 5732 5736 5739 5741 5742 5745 5748 5752 5754 5757 5760 5763 5766 5770 5773 5774 5776 5778 5780 5781 5782 5782 5784 5786 5787 5789 5790 5792 5792 5792 5792 5792 5792 5793 5793 5793 5792 5792 5791 5791 5792 5792
5642 5648 5656 5661 5665 5672 5677 5679 5686 5692 5693 5694 5698 5703 5706 5709 5712 5714 5716 5719 5723 5726 5731 5735 5737 5738 5741 5744 5747 5750 5752 5755 5757 5761 5764 5766 5768 5771 5774 5777 5778 5778 5778 5780 5782 5783 5785 5786 5787 5788 5788 5788 5788 5789 5789 5789 5789 5789 5789 5788 5787 5787 5788
5634 5639 5646 5652 5658 5666 5671 5673 5678 5684 5686 5688 5692 5696 5699 5703 5707 5710 5712 5715 5718 5722 5727 5730 5731 5734 5737 5739 5742 5744 5746 5749 5752 5756 5758 5760 5762 5765 5768 5771 5773 5774 5774 5776 5778 5780 5781 5781 5782 5783 5784 5785 5785 5785 5785 5785 5785 5785 5785 5785 5784 5784 5784
5625 5631 5637 5644 5651 5658 5663 5667 5671 5675 5678 5682 5686 5690 5694 5697 5701 5705 5708 5711 5713 5717 5722 5724 5725 5727 5730 5733 5736 5738 5740 5743 5747 5751 5754 5756 5759 5761 5763 5765 5767 5769 5771 5772 5774 5775 5776 5777 5778 5779 5780 5781 5781 5781 5782 5782 5781 5782 5782 5782 5781 5781 5781
5618 5624 5629 5636 5644 5650 5656 5661 5664 5667 5671 5675 5680 5684 5688 5691 5695 5699 5702 5706 5709 5712 5717 5719 5721 5722 5724 5726 5728 5732 5735 5738 5742 5746 5749 5752 5755 5757 5759 5761 5763 5765 5767 5768 5769 5770 5771 5772 5773 5774 5775 5777 5777 5777 5777 5778 5778 5778 5779 5779 5779 5778 5777
5611 5617 5621 5627 5636 5644 5649 5654 5657 5660 5664 5668 5673 5678 5682 5685 5688 5692 5697 5701 5704 5706 5710 5714 5716 5717 5719 5720 5722 5726 5731 5735 5738 5742 5745 5747 5749 5752 5754 5756 5759 5760 5762 5764 5764 5765 5766 5767 5768 5769 5771 5772 5773 5773 5774 5773 5774 5775 5775 5775 5776 5775 5774
5605 5609 5613 5619 5629 5637 5642 5646 5650 5654 5657 5660 5665 5671 5676 5679 5682 5687 5691 5695 5699 5702 5704 5707 5708 5709 5712 5713 5716 5720 5724 5728 5732 5736 5739 5741 5744 5746 5748 5750 5753 5755 5757 5758 5759 5760 5762 5762 5763 5764 5766 5767 5768 5769 5769 5770 5770 5771 5771 5771 5772 5771 5771
5598 5602 5606 5612 5621 5630 5635 5639 5644 5649 5651 5653 5657 5664 5670 5674 5677 5680 5685 5689 5693 5696 5698 5699 5700 5701 5704 5707 5709 5714 5718 5721 5725 5728 5731 5735 5738 5740 5743 5744 5747 5749 5751 5752 5753 5756 5757 5758 5758 5760 5761 5762 5763 5764 5765 5765 5766 5766 5766 5766 5767 5767 5767
5592 5596 5601 5606 5614 5624 5630 5633 5637 5642 5644 5646 5650 5656 5663 5668 5671 5673 5677 5682 5686 5689 5692 5693 5693 5694 5698 5700 5703 5707 5711 5714 5717 5720 5724 5728 5731 5734 5736 5738 5740 5742 5745 5746 5748 5750 5752 5753 5754 5755 5756 5757 5758 5759 5760 5761 5762 5761 5761 5761 5761 5762 5763
5587 5592 5597 5601 5607 5616 5623 5627 5631 5635 5637 5640 5644 5650 5657 5661 5663 5665 5670 5675 5679 5682 5684 5686 5688 5689 5691 5694 5697 5700 5704 5707 5709 5712 5716 5719 5723 5726 5729 5731 5733 5735 5738 5740 5742 5744 5745 5747 5748 5750 5751 5752 5752 5754 5755 5756 5757 5757 5756 5756 5757 5758 5759
5583 5587 5591 5595 5600 5607 5615 5622 5627 5630 5632 5634 5639 5645 5650 5653 5655 5659 5664 5668 5672 5675 5677 5680 5682 5684 5686 5690 5693 5695 5697 5699 5702 5705 5708 5711 5715 5718 5721 5723 5726 5729 5732 5734 5736 5737 5738 5740 5742 5744 5745 5746 5747 5748 5749 5750 5751 5751 5751 5751 5752 5753 5753
5578 5581 5585 5589 5594 5600 5608 5615 5620 5625 5628 5630 5633 5638 5642 5646 5649 5653 5658 5662 5664 5667 5671 5673 5676 5679 5682 5685 5688 5689 5691 5693 5696 5698 5700 5703 5706 5709 5712 5715 5718 5721 5725 5727 5729 5731 5732 5733 5735 5737 5739 5740 5741 5742 5742 5744 5745 5746 5746 5746 5746 5746 5746
5573 5576 5580 5584 5589 5594 5602 5609 5614 5618 5622 5623 5627 5633 5636 5639 5643 5648 5653 5656 5658 5662 5665 5668 5670 5673 5677 5680 5682 5683 5685 5687 5689 5691 5694 5696 5699 5701 5704 5707 5710 5713 5717 5719 5722 5725 5726 5727 5728 5730 5732 5734 5735 5735 5736 5737 5739 5739 5739 5740 5740 5740 5740
5568 5571 5575 5579 5584 5589 5596 5603 5607 5610 5613 5616 5621 5627 5631 5635 5638 5642 5647 5651 5655 5658 5660 5662 5665 5669 5672 5675 5676 5677 5679 5681 5684 5687 5690 5693 5695 5696 5699 5701 5703 5705 5708 5711 5715 5718 5719 5719 5720 5723 5725 5726 5727 5728 5729 5732 5733 5733 5733 5733 5734 5734 5734
5564 5567 5571 5575 5579 5584 5590 5596 5600 5604 5607 5611 5615 5620 5625 5630 5632 5637 5642 5646 5649 5652 5654 5657 5660 5663 5666 5669 5670 5672 5675 5678 5680 5682 5686 5689 5690 5692 5694 5696 5697 5699 5701 5704 5706 5709 5711 5711 5712 5715 5717 5718 5718 5719 5722 5725 5727 5727 5726 5726 5727 5727 5727
5560 5563 5567 5571 5574 5579 5584 5589 5594 5598 5601 5605 5610 5614 5620 5624 5626 5630 5636 5640 5643 5645 5647 5651 5654 5657 5659 5662 5664 5668 5672 5674 5675 5677 5679 5682 5684 5686 5689 5691 5694 5696 5697 5699 5700 5701 5701 5702 5704 5707 5709 5709 5709 5712 5716 5719 5720 5719 5718 5718 5718 5719 5721
5557 5560 5563 5567 5570 5574 5579 5583 5588 5592 5594 5598 5604 5609 5614 5619 5622 5624 5628 5632 5635 5639 5641 5644 5648 5651 5653 5656 5659 5664 5666 5667 5669 5670 5672 5675 5678 5681 5683 5685 5687 5689 5690 5692 5694 5694 5694 5695 5697 5699 5701 5702 5703 5706 5710 5711 5711 5711 5710 5709 5711 5714 5716
5555 5558 5561 5564 5567 5571 5575 5578 5582 5586 5589 5593 5598 5603 5609 5613 5617 5619 5620 5622 5626 5631 5634 5637 5641 5644 5647 5651 5655 5659 5661 5663 5664 5666 5670 5673 5675 5677 5679 5681 5682 5682 5683 5684 5686 5686 5685 5687 5690 5694 5696 5697 5699 5701 5702 5703 5703 5703 5702 5701 5704 5709 5710
5553 5555 5558 5562 5565 5568 5572 5575 5578 5582 5585 5588 5593 5597 5603 5607 5610 5612 5613 5614 5618 5623 5627 5630 5634 5638 5642 5646 5651 5654 5657 5659 5660 5663 5666 5669 5670 5671 5673 5675 5677 5677 5676 5676 5677 5678 5679 5681 5686 5691 5692 5691 5693 5695 5695 5695 5696 5697 5696 5695 5697 5701 5703
5550 5553 5555 5559 5562 5566 5569 5571 5574 5578 5581 5585 5588 5591 5596 5601 5605 5607 5609 5610 5613 5617 5620 5623 5627 5632 5637 5641 5646 5649 5653 5655 5657 5658 5660 5661 5662 5663 5664 5667 5671 5671 5668 5667 5670 5674 5677 5677 5679 5684 5685 5684 5685 5687 5688 5689 5690 5690 5690 5690 5691 5693 5695
5548 5550 5553 5555 5558 5561 5565 5568 5571 5573 5576 5580 5583 5586 5590 5595 5599 5602 5605 5608 5610 5613 5617 5620 5623 5627 5632 5637 5641 5645 5648 5650 5651 5652 5653 5654 5654 5656 5658 5660 5663 5662 5660 5661 5664 5668 5671 5671 5671 5674 5677 5677 5678 5679 5681 5682 5683 5683 5683 5684 5684 5685 5686